LFBP

Pau Pyrénées Airport

Airport
ICAO code
LFBP
IATA Code
PUF
Summary
ICAO Region
EUR
ICAO Territory
Location

Uzein, Aquitaine

Serving
Pau
Elevation
616 ft
Coordinates
43° 22' 46" N , 0° 25' 6" W
KCC
Metar
Observation
LFBP 011300Z AUTO 25013KT 9999 SCT022/// SCT052/// BKN074/// ///TCU 11/09 Q1019 TEMPO 28025G45KT 3000 -TSRA BKN013 SCT020CB
Station
Pau
Date/Time
2023-04-01 13:00:00
Wind direction
250°
Wind speed
13 kts
Lowest cloud amount
scattered clouds
Temperature
11°C
Dew point
9°C
Humidity
87%
QNH
1019 hPa
Weather condition
n/a

Description

Pau Pyrénées Airport (French: Aéroport Pau Pyrénées) is an airport serving Pau, France. It is located 10 km northwest of Pau in Uzein.

Climatology

Temperate Marine climate/Oceanic climate (Köppen climate classification Cfb). Moderately cool summer and comparatively warm winter with a temperature range of only 14°C. Prevailing south-westerly winds from the Atlantic Ocean.

Runways

Designator Length Width Surface Rops
13/31 2500 45 ASP Yes/Yes

Airport map

Aerial View

SKYbrary Partners:

Safety knowledge contributed by: